| time (UTC) | temp F | wind direction | speed MPH | gust MPH | rain 1hr in | rain 24hr in | rain mn in | humidity % | barometer mb |
| 20260906014556 | 53 | 0.0 | 0.0 | 0.00 | 0.00 | 0.00 | 82 | 1032.3 | |
| 20260906013521 | 54 | 281 | 0.0 | 2.0 | 0.00 | 0.00 | 0.00 | 81 | 1032.1 |
| 20260906012055 | 54 | 0.0 | 0.0 | 0.00 | 0.00 | 0.00 | 81 | 1031.9 | |
| 20260906011020 | 54 | 293 | 1.0 | 4.0 | 0.00 | 0.00 | 0.00 | 79 | 1031.9 |
| 20260906010111 | 55 | 0.0 | 0.0 | 0.00 | 0.00 | 0.00 | 79 | 1031.9 | |
| 20260906004521 | 55 | 255 | 0.0 | 2.0 | 0.00 | 0.00 | 0.00 | 77 | 1031.8 |
| 20260906003610 | 55 | 253 | 1.0 | 2.0 | 0.00 | 0.00 | 0.00 | 77 | 1031.8 |
| 20260906002558 | 55 | 259 | 1.0 | 4.0 | 0.00 | 0.00 | 0.00 | 77 | 1031.8 |
| 20260906001607 | 55 | 0.0 | 0.0 | 0.00 | 0.00 | 0.00 | 78 | 1031.7 | |
| 20260906000556 | 55 | 270 | 1.0 | 2.0 | 0.00 | 0.00 | 0.00 | 78 | 1031.6 |
| 20260905235611 | 55 | 0.0 | 2.0 | 0.00 | 0.00 | 0.00 | 79 | 1031.5 | |
| 20260905234110 | 56 | 0.0 | 0.0 | 0.00 | 0.00 | 0.00 | 78 | 1031.5 | |
| 20260905232521 | 56 | 0.0 | 2.0 | 0.00 | 0.00 | 0.00 | 78 | 1031.3 | |
| 20260905231609 | 56 | 263 | 0.0 | 2.0 | 0.00 | 0.00 | 0.00 | 77 | 1031.2 |
| 20260905230558 | 56 | 293 | 0.0 | 2.0 | 0.00 | 0.00 | 0.00 | 77 | 1031.2 |
| 20260905225611 | 56 | 270 | 0.0 | 2.0 | 0.00 | 0.00 | 0.00 | 76 | 1031.0 |
| 20260905224110 | 57 | 270 | 0.0 | 2.0 | 0.00 | 0.00 | 0.00 | 75 | 1030.9 |
| 20260905222556 | 57 | 293 | 1.0 | 2.0 | 0.00 | 0.00 | 0.00 | 75 | 1030.7 |
| 20260905221521 | 57 | 255 | 0.0 | 2.0 | 0.00 | 0.00 | 0.00 | 74 | 1030.7 |
| 20260905220111 | 56 | 270 | 0.0 | 2.0 | 0.00 | 0.00 | 0.00 | 76 | 1030.5 |
| 20260905214556 | 57 | 0.0 | 0.0 | 0.00 | 0.00 | 0.00 | 74 | 1030.3 | |
| 20260905213521 | 57 | 0.0 | 0.0 | 0.00 | 0.00 | 0.00 | 73 | 1030.2 | |
| 20260905212109 | 59 | 270 | 0.0 | 2.0 | 0.00 | 0.00 | 0.00 | 70 | 1030.1 |
| 20260905210522 | 58 | 270 | 0.0 | 2.0 | 0.00 | 0.00 | 0.00 | 72 | 1030.0 |
| 20260905205609 | 58 | 293 | 0.0 | 2.0 | 0.00 | 0.00 | 0.00 | 72 | 1030.1 |
| 20260905204055 | 59 | 270 | 1.0 | 2.0 | 0.00 | 0.00 | 0.00 | 71 | 1029.9 |
| 20260905203056 | 59 | 0.0 | 2.0 | 0.00 | 0.00 | 0.00 | 71 | 1030.0 | |
| 20260905202020 | 60 | 248 | 0.0 | 2.0 | 0.00 | 0.00 | 0.00 | 70 | 1029.8 |
| 20260905201109 | 61 | 315 | 0.0 | 2.0 | 0.00 | 0.00 | 0.00 | 69 | 1029.8 |
| 20260905195609 | 61 | 278 | 1.0 | 4.0 | 0.00 | 0.01 | 0.00 | 68 | 1029.4 |
| 20260905194033 | 61 | 238 | 0.0 | 2.0 | 0.00 | 0.02 | 0.00 | 68 | 1029.3 |
| 20260905193021 | 61 | 0.0 | 2.0 | 0.00 | 0.02 | 0.00 | 69 | 1029.2 | |
| 20260905192111 | 61 | 0.0 | 0.0 | 0.00 | 0.02 | 0.00 | 68 | 1029.1 | |
| 20260905190545 | 62 | 0.0 | 4.0 | 0.00 | 0.15 | 0.00 | 66 | 1028.9 | |
| 20260905185056 | 63 | 231 | 1.0 | 4.0 | 0.00 | 0.17 | 0.00 | 65 | 1028.7 |
| 20260905184020 | 63 | 303 | 1.0 | 4.0 | 0.00 | 0.17 | 0.00 | 66 | 1028.6 |
| 20260905183110 | 63 | 270 | 0.0 | 2.0 | 0.00 | 0.17 | 0.00 | 65 | 1028.4 |
| 20260905182057 | 64 | 315 | 2.0 | 4.0 | 0.00 | 0.17 | 0.00 | 64 | 1028.4 |
| 20260905181020 | 63 | 283 | 1.0 | 6.0 | 0.00 | 0.17 | 0.00 | 65 | 1028.3 |
| 20260905180109 | 63 | 0.0 | 0.0 | 0.00 | 0.17 | 0.00 | 65 | 1028.2 | |
| 20260905174558 | 64 | 0.0 | 0.0 | 0.00 | 0.17 | 0.00 | 64 | 1027.9 | |
| 20260905173523 | 65 | 304 | 0.0 | 2.0 | 0.00 | 0.17 | 0.00 | 62 | 1027.8 |
| 20260905172109 | 65 | 293 | 1.0 | 2.0 | 0.00 | 0.17 | 0.00 | 63 | 1027.6 |
| 20260905170546 | 64 | 205 | 1.0 | 4.0 | 0.00 | 0.17 | 0.00 | 66 | 1027.3 |
| 20260905165022 | 63 | 257 | 0.0 | 2.0 | 0.00 | 0.17 | 0.00 | 71 | 1027.2 |
| 20260905164111 | 65 | 293 | 0.0 | 2.0 | 0.00 | 0.17 | 0.00 | 71 | 1027.2 |
| 20260905162520 | 64 | 203 | 1.0 | 4.0 | 0.00 | 0.17 | 0.00 | 72 | 1027.1 |
| 20260905161608 | 63 | 191 | 1.0 | 4.0 | 0.00 | 0.17 | 0.00 | 72 | 1027.0 |
| 20260905160557 | 63 | 0.0 | 2.0 | 0.00 | 0.17 | 0.00 | 73 | 1026.8 | |
| 20260905155610 | 64 | 288 | 1.0 | 4.0 | 0.00 | 0.17 | 0.00 | 71 | 1026.9 |
| 20260905154556 | 64 | 302 | 2.0 | 7.0 | 0.00 | 0.17 | 0.00 | 70 | 1026.6 |
| 20260905153523 | 66 | 287 | 1.0 | 4.0 | 0.00 | 0.17 | 0.00 | 64 | 1026.3 |
| 20260905152056 | 68 | 0.0 | 2.0 | 0.00 | 0.17 | 0.00 | 56 | 1026.3 | |
| 20260905151020 | 69 | 280 | 3.0 | 15.0 | 0.00 | 0.17 | 0.00 | 54 | 1025.8 |
| 20260905150109 | 69 | 293 | 5.0 | 16.0 | 0.00 | 0.17 | 0.00 | 53 | 1025.7 |
| 20260905144556 | 69 | 236 | 4.0 | 8.0 | 0.00 | 0.17 | 0.00 | 53 | 1025.5 |
| 20260905143521 | 70 | 309 | 5.0 | 14.0 | 0.00 | 0.17 | 0.00 | 52 | 1025.6 |
| 20260905142056 | 72 | 270 | 3.0 | 6.0 | 0.00 | 0.17 | 0.00 | 51 | 1025.5 |
| 20260905141020 | 71 | 306 | 6.0 | 18.0 | 0.00 | 0.17 | 0.00 | 52 | 1025.4 |
| 20260905140114 | 73 | 276 | 2.0 | 6.0 | 0.00 | 0.17 | 0.00 | 50 | 1025.5 |
| 20260905134557 | 72 | 237 | 5.0 | 13.0 | 0.00 | 0.17 | 0.00 | 51 | 1025.5 |
| 20260905133607 | 71 | 264 | 6.0 | 14.0 | 0.00 | 0.17 | 0.00 | 52 | 1025.3 |
| 20260905132558 | 72 | 302 | 6.0 | 14.0 | 0.00 | 0.17 | 0.00 | 52 | 1025.4 |
| 20260905131522 | 69 | 293 | 5.0 | 15.0 | 0.00 | 0.17 | 0.00 | 55 | 1025.5 |
| 20260905130056 | 69 | 23 | 4.0 | 11.0 | 0.00 | 0.17 | 0.00 | 56 | 1025.5 |
| 20260905125045 | 69 | 301 | 5.0 | 11.0 | 0.00 | 0.17 | 0.00 | 55 | 1025.4 |
| 20260905124032 | 70 | 268 | 4.0 | 14.0 | 0.00 | 0.17 | 0.00 | 54 | 1025.6 |
| 20260905123020 | 70 | 282 | 5.0 | 15.0 | 0.00 | 0.17 | 0.00 | 54 | 1025.5 |
| 20260905122111 | 69 | 268 | 6.0 | 15.0 | 0.00 | 0.17 | 0.00 | 53 | 1025.5 |
| 20260905120557 | 69 | 280 | 6.0 | 14.0 | 0.00 | 0.17 | 0.00 | 52 | 1025.5 |
| 20260905115607 | 71 | 338 | 5.0 | 14.0 | 0.00 | 0.17 | 0.00 | 51 | 1025.4 |
| 20260905114558 | 71 | 256 | 6.0 | 13.0 | 0.00 | 0.17 | 0.00 | 52 | 1025.2 |
| 20260905113521 | 71 | 289 | 4.0 | 11.0 | 0.00 | 0.17 | 0.00 | 52 | 1025.4 |
| 20260905112109 | 70 | 291 | 4.0 | 15.0 | 0.00 | 0.17 | 0.00 | 54 | 1025.4 |
| 20260905110557 | 69 | 305 | 4.0 | 11.0 | 0.00 | 0.17 | 0.00 | 55 | 1025.5 |
| 20260905105609 | 69 | 338 | 5.0 | 16.0 | 0.00 | 0.17 | 0.00 | 56 | 1025.5 |
| 20260905104109 | 68 | 273 | 4.0 | 9.0 | 0.00 | 0.17 | 0.00 | 59 | 1025.5 |
| 20260905102533 | 68 | 340 | 7.0 | 15.0 | 0.00 | 0.17 | 0.00 | 59 | 1025.6 |
| 20260905101521 | 67 | 284 | 4.0 | 13.0 | 0.00 | 0.17 | 0.00 | 61 | 1025.6 |
| 20260905100110 | 68 | 245 | 6.0 | 14.0 | 0.00 | 0.17 | 0.00 | 60 | 1025.6 |
| 20260905094556 | 68 | 226 | 4.0 | 11.0 | 0.00 | 0.17 | 0.00 | 60 | 1025.5 |
| 20260905093521 | 66 | 289 | 3.0 | 11.0 | 0.00 | 0.17 | 0.00 | 63 | 1025.5 |
| 20260905092032 | 67 | 285 | 5.0 | 16.0 | 0.00 | 0.17 | 0.00 | 64 | 1025.4 |
| 20260905091021 | 67 | 290 | 3.0 | 9.0 | 0.00 | 0.17 | 0.00 | 63 | 1025.3 |
| 20260905090110 | 67 | 341 | 5.0 | 13.0 | 0.00 | 0.17 | 0.00 | 64 | 1025.2 |
| 20260905084556 | 66 | 293 | 6.0 | 17.0 | 0.00 | 0.17 | 0.00 | 66 | 1025.0 |
| 20260905083521 | 65 | 283 | 6.0 | 21.0 | 0.00 | 0.17 | 0.00 | 67 | 1025.0 |
| 20260905082032 | 65 | 342 | 5.0 | 17.0 | 0.00 | 0.17 | 0.00 | 67 | 1024.9 |
| 20260905081022 | 65 | 302 | 5.0 | 11.0 | 0.00 | 0.17 | 0.00 | 70 | 1024.8 |
| 20260905080109 | 64 | 300 | 5.0 | 13.0 | 0.00 | 0.17 | 0.00 | 71 | 1024.6 |
| 20260905074557 | 64 | 307 | 5.0 | 11.0 | 0.00 | 0.17 | 0.00 | 73 | 1024.7 |
| 20260905073523 | 63 | 305 | 5.0 | 14.0 | 0.00 | 0.17 | 0.00 | 73 | 1024.6 |
| 20260905072056 | 63 | 315 | 4.0 | 8.0 | 0.00 | 0.17 | 0.00 | 74 | 1024.5 |
| 20260905071022 | 62 | 310 | 5.0 | 13.0 | 0.00 | 0.17 | 0.00 | 76 | 1024.6 |
| 20260905070109 | 62 | 270 | 5.0 | 13.0 | 0.00 | 0.17 | 0.00 | 76 | 1024.4 |
| 20260905064532 | 61 | 238 | 3.0 | 7.0 | 0.00 | 0.17 | 0.00 | 77 | 1024.4 |
| 20260905063522 | 61 | 272 | 3.0 | 9.0 | 0.00 | 0.17 | 0.00 | 78 | 1024.4 |
| 20260905062056 | 60 | 338 | 3.0 | 4.0 | 0.00 | 0.17 | 0.00 | 80 | 1024.1 |
| 20260905061045 | 60 | 270 | 3.0 | 8.0 | 0.00 | 0.17 | 0.00 | 80 | 1024.1 |
| 20260905060033 | 60 | 296 | 3.0 | 8.0 | 0.00 | 0.17 | 0.00 | 81 | 1023.9 |
| 20260905055021 | 59 | 302 | 2.0 | 7.0 | 0.00 | 0.17 | 0.00 | 81 | 1023.8 |
| 20260905054109 | 59 | 311 | 3.0 | 8.0 | 0.00 | 0.17 | 0.00 | 82 | 1023.7 |
| 20260905052520 | 58 | 305 | 1.0 | 8.0 | 0.00 | 0.17 | 0.00 | 83 | 1023.7 |
| 20260905051608 | 57 | 325 | 2.0 | 6.0 | 0.00 | 0.17 | 0.00 | 84 | 1023.7 |
| 20260905050111 | 57 | 315 | 2.0 | 4.0 | 0.00 | 0.17 | 0.00 | 84 | 1023.5 |
| 20260905044557 | 57 | 308 | 2.0 | 6.0 | 0.00 | 0.17 | 0.00 | 84 | 1023.3 |
| 20260905043546 | 57 | 306 | 2.0 | 4.0 | 0.00 | 0.17 | 0.00 | 85 | 1023.2 |
| 20260905042533 | 57 | 278 | 1.0 | 4.0 | 0.00 | 0.17 | 0.00 | 85 | 1023.1 |
| 20260905041522 | 57 | 313 | 2.0 | 4.0 | 0.00 | 0.17 | 0.00 | 84 | 1022.9 |
| 20260905040032 | 57 | 312 | 1.0 | 4.0 | 0.00 | 0.17 | 0.00 | 87 | 1022.9 |
| 20260905035021 | 57 | 301 | 1.0 | 4.0 | 0.00 | 0.17 | 0.00 | 87 | 1022.9 |
| 20260905034111 | 57 | 305 | 2.0 | 4.0 | 0.00 | 0.17 | 0.00 | 87 | 1022.8 |
| 20260905032545 | 57 | 293 | 2.0 | 4.0 | 0.00 | 0.17 | 0.00 | 88 | 1022.8 |
| 20260905031533 | 57 | 311 | 1.0 | 4.0 | 0.00 | 0.17 | 0.00 | 89 | 1022.7 |
| 20260905030523 | 58 | 296 | 1.0 | 4.0 | 0.00 | 0.17 | 0.00 | 89 | 1022.7 |
| 20260905025608 | 58 | 258 | 1.0 | 4.0 | 0.00 | 0.17 | 0.00 | 89 | 1022.6 |
| 20260905024110 | 58 | 297 | 1.0 | 2.0 | 0.00 | 0.17 | 0.00 | 88 | 1022.5 |
| 20260905022534 | 58 | 288 | 1.0 | 4.0 | 0.00 | 0.17 | 0.00 | 88 | 1022.4 |
| 20260905021522 | 59 | 281 | 0.0 | 2.0 | 0.00 | 0.17 | 0.00 | 89 | 1022.3 |
| 20260905020109 | 59 | 293 | 0.0 | 2.0 | 0.00 | 0.17 | 0.00 | 89 | 1022.0 |